Location: Recife
(8.0585°S, 34.8848°W)
Time: 13:07:33
(UTC-03:00)

Vanguard 3 - All Passes

Search period start: 14 April 2026 00:00
Search period end: 24 April 2026 00:00
Orbit: 508 x 3204 km, 33.3° (Epoch: 14 April)

Date Brightness Start Highest point End Pass type
(mag) Time Alt. Az. Time Alt. Az. Time Alt. Az.
14 Apr - 05:17:02 10° N 05:24:10 26° NE 05:34:45 10° E daylight
14 Apr - 07:25:33 10° NW 07:36:42 86° NE 07:55:09 10° SE daylight
14 Apr - 09:38:58 10° W 09:53:18 46° SSW 10:11:51 10° SE daylight
14 Apr - 11:57:50 10° WSW 12:13:29 30° S 12:28:30 10° SE daylight
14 Apr - 14:18:22 10° SW 14:34:12 31° S 14:45:50 10° ESE daylight
14 Apr - 16:36:02 10° SW 16:51:26 56° SSE 17:00:16 10° ENE daylight
14 Apr - 18:53:28 10° WSW 19:04:09 45° NW 19:10:22 10° NNE visible
15 Apr - 06:04:36 10° NNW 06:13:27 51° NE 06:28:29 10° ESE daylight
15 Apr - 08:15:25 10° WNW 08:27:37 64° SSW 08:46:27 10° SE daylight
15 Apr - 10:31:16 10° WSW 10:46:04 35° SSW 11:03:07 10° SE daylight
15 Apr - 12:51:22 10° SW 13:07:13 29° S 13:20:53 10° ESE daylight
15 Apr - 15:10:11 10° SW 15:26:41 41° SSE 15:37:32 10° E daylight
15 Apr - 17:27:16 10° SW 17:41:57 88° NNW 17:49:55 10° NE visible
15 Apr - 19:47:03 10° W 19:53:01 18° NW 19:57:23 10° N visible
16 Apr - 04:45:12 10° N 04:51:20 23° NE 05:00:20 10° E visible
16 Apr - 06:53:23 10° NW 07:03:18 88° NE 07:20:34 10° SE daylight
16 Apr - 09:06:23 10° W 09:19:27 45° SSW 09:37:34 10° SE daylight
16 Apr - 11:24:25 10° WSW 11:39:34 30° S 11:55:08 10° SE daylight
16 Apr - 13:43:58 10° SW 14:00:35 33° SSE 14:13:26 10° ESE daylight
16 Apr - 16:01:25 10° SW 16:18:18 60° SSE 16:28:16 10° ENE daylight
16 Apr - 18:19:14 10° WSW 18:31:29 47° NW 18:38:32 10° NNE visible
17 Apr - 05:32:38 10° NNW 05:40:26 50° NE 05:53:58 10° ESE daylight
17 Apr - 07:43:10 10° WNW 07:54:04 61° SSW 08:11:53 10° SE daylight
17 Apr - 09:58:28 10° WSW 10:12:11 34° SSW 10:29:06 10° SE daylight
17 Apr - 12:17:30 10° SW 12:33:21 30° S 12:47:56 10° ESE daylight
17 Apr - 14:35:36 10° SW 14:53:13 44° SSE 15:05:18 10° E daylight
17 Apr - 16:52:45 10° SW 17:08:56 87° NW 17:17:57 10° NE daylight
17 Apr - 19:12:55 10° W 19:20:27 21° NW 19:25:45 10° N visible
18 Apr - 04:13:28 10° N 04:18:40 21° NE 04:26:04 10° E visible
18 Apr - 06:21:21 10° NW 06:30:07 89° NE 06:45:58 10° SE daylight
18 Apr - 08:34:01 10° W 08:45:49 42° SSW 09:03:07 10° SE daylight
18 Apr - 10:51:16 10° WSW 11:05:39 29° S 11:21:29 10° SE daylight
18 Apr - 13:09:45 10° SW 13:26:48 35° SSE 13:40:48 10° ESE daylight
18 Apr - 15:26:48 10° SW 15:44:55 63° SSE 15:56:08 10° ENE daylight
18 Apr - 17:44:49 10° WSW 17:58:37 49° NW 18:06:37 10° NNE visible
19 Apr - 05:00:44 10° NNW 05:07:36 48° NE 05:19:36 10° ESE visible
19 Apr - 07:11:04 10° WNW 07:20:45 58° SSW 07:37:16 10° SE daylight
19 Apr - 09:25:53 10° WSW 09:38:26 32° SSW 09:54:50 10° SE daylight
19 Apr - 11:43:55 10° SW 11:59:25 30° S 12:14:43 10° ESE daylight
19 Apr - 14:01:11 10° SW 14:19:30 46° SSE 14:32:53 10° E daylight
19 Apr - 16:18:09 10° WSW 16:35:41 85° NW 16:45:52 10° NE daylight
19 Apr - 18:38:36 10° W 18:47:45 23° NW 18:54:00 10° N visible
20 Apr - 03:41:50 10° N 03:46:07 18° NE 03:52:00 10° E visible
20 Apr - 05:49:24 10° NW 05:57:09 89° SSW 06:11:27 10° SE daylight
20 Apr - 08:01:49 10° W 08:12:22 40° SSW 08:28:30 10° SE daylight
20 Apr - 10:18:21 10° SW 10:31:48 29° S 10:47:35 10° SE daylight
20 Apr - 12:35:47 10° SW 12:52:53 36° SSE 13:07:56 10° ESE daylight
20 Apr - 14:52:16 10° SW 15:11:20 65° SSE 15:23:49 10° ENE daylight
20 Apr - 17:10:17 10° WSW 17:25:32 50° NW 17:34:37 10° NNE visible
21 Apr - 04:28:56 10° NNW 04:34:57 46° NE 04:45:24 10° ESE visible
21 Apr - 06:39:05 10° WNW 06:47:40 54° SSW 07:02:38 10° SE daylight
21 Apr - 08:53:31 10° WSW 09:04:50 31° S 09:20:23 10° SE daylight
21 Apr - 11:10:35 10° SW 11:25:29 30° S 11:41:14 10° ESE daylight
21 Apr - 13:26:56 10° SW 13:45:37 48° SSE 14:00:15 10° E daylight
21 Apr - 15:43:34 10° WSW 16:02:12 84° NW 16:13:39 10° NE daylight
21 Apr - 18:04:08 10° W 18:14:52 25° NW 18:22:09 10° N visible
22 Apr - 03:10:16 10° N 03:13:42 16° NE 03:18:09 10° E visible
22 Apr - 05:17:33 10° WNW 05:24:23 86° SW 05:37:04 10° SE daylight
22 Apr - 07:29:47 10° W 07:39:08 36° SSW 07:53:50 10° SE daylight
22 Apr - 09:45:41 10° SW 09:58:04 28° S 10:13:24 10° SE daylight
22 Apr - 12:02:04 10° SW 12:18:52 36° SSE 12:34:49 10° E daylight
22 Apr - 14:17:52 10° SW 14:37:29 67° SSE 14:51:20 10° ENE daylight
22 Apr - 16:35:41 10° WSW 16:52:15 52° NW 17:02:28 10° NNE daylight
23 Apr - 03:57:09 10° NNW 04:02:27 44° NE 04:11:27 10° ESE visible
23 Apr - 06:07:13 10° W 06:14:47 50° SSW 06:28:04 10° SE daylight
23 Apr - 08:21:21 10° WSW 08:31:28 28° S 08:45:44 10° SE daylight
23 Apr - 10:37:30 10° SW 10:51:34 30° S 11:07:29 10° ESE daylight
23 Apr - 12:52:56 10° SW 13:11:34 49° SSE 13:27:23 10° E daylight
23 Apr - 15:09:03 10° WSW 15:28:30 84° NW 15:41:16 10° NE daylight
23 Apr - 17:29:32 10° W 17:41:48 27° NW 17:50:10 10° N visible
